Location: Launay
(47.2429°N, 1.5727°E)
Time: 15:43:45
(UTC+00:00)

Cosmos 1420 Rocket - Pass Details

Date: 09 August 2025
Orbit: 749 x 777 km, 74.0° (Epoch: 10 April)

Event Time Altitude Azimuth Distance (km) Brightness Sun altitude
Exits shadow 21:43:21 25° 91° (E) 1,486 5.2 -20.2°
Drops below altitude 10° 21:47:07 10° 45° (NE) 2,284 6.6 -20.6°
Enters shadow 22:52:42 -54° 204° (SSW) 11,241 9.9 -25.5°
Maximum altitude 23:24:37 47° 298° (WNW) 995 4.7 -26.7°
